Fort Sill, OK

1:25 PM CDT on April 27, 2017 (GMT -0500)
Post Army Air Field

Weather History for KFSI - December, 2012

Change the Weather History Date:

Thursday, December 6, 2012

  Actual Average Record
Temperature  
Mean Temperature 58 °F -  
Max Temperature 72 °F 55 °F 72 °F (1967)
Min Temperature 43 °F 33 °F 8 °F (1950)
Degree Days  
Heating Degree Days 8    
Growing Degree Days 8 (Base 50)    
Moisture  
Dew Point 42 °F    
Average Humidity 74    
Maximum Humidity 100    
Minimum Humidity 26    
Precipitation  
Precipitation 0.00 in - - ()
Sea Level Pressure  
Sea Level Pressure 29.84 in    
Wind  
Wind Speed 10 mph (South)    
Max Wind Speed 21 mph    
Max Gust Speed 28 mph    
Visibility 8 miles    
Events      
Averages and records for this station are not official NWS values.
T = Trace of Precipitation, MM = Missing Value Source: NWS Daily Summary

Daily Weather History Graph

Daily Weather History Graph

Search for Another Location

Airport or City:

Trip Planner

Search our weather history database for the weather conditions in past years. The results will help you decide how hot, cold, wet, or windy it might be!

Date:

Astronomy

Dec. 06, 2012 Rise Set
Actual Time 7:27 AM CST 5:22 PM CST
Civil Twilight 6:59 AM CST 5:50 PM CST
Nautical Twilight 6:27 AM CST 6:21 PM CST
Astronomical Twilight 5:57 AM CST 6:52 PM CST
Moon 12:01 AM CST (12/6) 12:34 PM CST (12/6)
Length of Visible Light 10h 51m
Length of Day
9h 55m
Waning Gibbous, 49% of the Moon is Illuminated
Dec 6
Waning Gibbous
Dec 13
New
Dec 19
First Quarter
Dec 28
Full
Jan 4
Last Quarter

Hourly Weather History & Observations

Time (CST) Temp. Windchill Dew Point Humidity Pressure Visibility Wind Dir Wind Speed Gust Speed Precip Events Conditions
12:55 AM 43.5 °F 40.1 °F 40.1 °F 88% 29.97 in 10.0 mi SSE 5.8 mph - N/A   Clear
1:55 AM 43.7 °F 39.7 °F 41.7 °F 93% 29.94 in 10.0 mi SSE 6.9 mph - N/A   Clear
2:55 AM 45.9 °F 41.7 °F 44.2 °F 94% 29.94 in 10.0 mi SSE 8.1 mph - N/A   Clear
3:55 AM 45.7 °F 40.2 °F 44.4 °F 95% 29.89 in 8.0 mi South 11.5 mph - N/A   Clear
4:55 AM 45.3 °F 40.6 °F 44.2 °F 96% 29.88 in 7.0 mi South 9.2 mph - N/A   Clear
5:08 AM 44.6 °F 40.2 °F 44.6 °F 100% 29.88 in 7.0 mi South 8.1 mph - N/A   Partly Cloudy
5:19 AM 44.6 °F 39.7 °F 44.6 °F 100% 29.88 in 6.0 mi SSE 9.2 mph - N/A   Mostly Cloudy
5:23 AM 44.6 °F 39.7 °F 44.6 °F 100% 29.87 in 6.0 mi SSE 9.2 mph - N/A   Mostly Cloudy
5:33 AM 46.4 °F 41.5 °F 44.6 °F 93% 29.87 in 6.0 mi SSE 10.4 mph - N/A   Overcast
5:55 AM 46.6 °F - 45.9 °F 97% 29.86 in 5.0 mi SSE 13.8 mph - N/A   Overcast
6:35 AM 46.4 °F 40.4 °F 46.4 °F 100% 29.88 in 2.5 mi South 13.8 mph - N/A   Overcast
6:42 AM 46.4 °F 40.7 °F 46.4 °F 100% 29.87 in 1.8 mi South 12.7 mph - N/A   Overcast
6:47 AM 46.4 °F 40.7 °F 46.4 °F 100% 29.87 in 2.0 mi South 12.7 mph - N/A   Overcast
6:54 AM 46.4 °F 41.1 °F 46.4 °F 100% 29.87 in 3.0 mi South 11.5 mph - N/A   Overcast
6:55 AM 47.3 °F - 46.6 °F 97% 29.87 in 3.0 mi SSE 11.5 mph - N/A   Overcast
7:21 AM 48.2 °F - 48.2 °F 100% 29.87 in 6.0 mi SSE 10.4 mph - N/A   Overcast
7:32 AM 48.2 °F - 46.4 °F 93% 29.86 in 6.0 mi South 10.4 mph - N/A   Overcast
7:42 AM 48.2 °F - 46.4 °F 93% 29.86 in 7.0 mi South 12.7 mph - N/A   Scattered Clouds
7:55 AM 48.7 °F - 47.8 °F 97% 29.86 in 10.0 mi South 15.0 mph - N/A   Partly Cloudy
8:55 AM 52.0 °F - 46.8 °F 82% 29.83 in 10.0 mi South 17.3 mph - N/A   Clear
9:55 AM 55.8 °F - 44.4 °F 66% 29.82 in 10.0 mi South 19.6 mph 27.6 mph N/A   Clear
10:55 AM 60.3 °F - 41.9 °F 51% 29.80 in 10.0 mi South 20.7 mph 27.6 mph N/A   Clear
11:55 AM 65.1 °F - 39.0 °F 38% 29.78 in 10.0 mi SSW 13.8 mph 24.2 mph N/A   Clear
12:55 PM 68.2 °F - 36.5 °F 31% 29.75 in 10.0 mi SSW 12.7 mph 20.7 mph N/A   Clear
1:55 PM 70.5 °F - 35.8 °F 28% 29.73 in 10.0 mi SW 10.4 mph - N/A   Clear
2:55 PM 72.0 °F - 35.6 °F 26% 29.73 in 10.0 mi SSW 8.1 mph - N/A   Clear
3:55 PM 71.6 °F - 35.4 °F 27% 29.73 in 10.0 mi SW 9.2 mph - N/A   Clear
4:55 PM 69.1 °F - 36.0 °F 30% 29.74 in 10.0 mi WNW 3.5 mph - N/A   Clear
5:55 PM 62.8 °F - 34.7 °F 35% 29.76 in 10.0 mi North 8.1 mph - N/A   Clear
6:55 PM 58.6 °F - 33.8 °F 39% 29.79 in 10.0 mi North 12.7 mph - N/A   Clear
7:55 PM 55.9 °F - 34.3 °F 44% 29.82 in 10.0 mi North 8.1 mph - N/A   Clear
8:55 PM 54.0 °F - 38.1 °F 55% 29.83 in 10.0 mi North 12.7 mph - N/A   Clear
9:55 PM 51.8 °F - 40.5 °F 65% 29.83 in 10.0 mi North 13.8 mph - N/A   Clear
10:55 PM 50.9 °F - 42.3 °F 72% 29.82 in 10.0 mi North 12.7 mph - N/A   Clear
11:55 PM 49.1 °F - 42.3 °F 77% 29.82 in 10.0 mi North 10.4 mph - N/A   Clear